GFSFLT1_prec_pwat_072.txt.gz
Precipitable_Water
0.70 0.80 0.86 0.91 0.89 0.75 0.73 0.80 0.87 0.91 0.98 1.06 1.14 1.17 1.26 1.47 1.58 1.59 1.59 1.55 1.43 1.24 1.08 1.01 0.94 0.87 0.89 0.86 0.88 0.89 0.83 0.84
0.78 0.85 0.89 0.92 0.92 0.78 0.69 0.72 0.82 0.86 0.87 0.93 1.04 1.09 1.18 1.27 1.40 1.48 1.52 1.52 1.50 1.36 1.17 1.12 1.04 0.95 1.01 1.02 0.98 0.92 0.89 0.90
0.76 0.82 0.86 0.87 0.89 0.84 0.70 0.70 0.77 0.81 0.90 1.02 1.12 1.18 1.22 1.26 1.33 1.40 1.47 1.50 1.50 1.39 1.26 1.19 1.15 1.03 1.10 1.11 1.06 0.96 0.99 0.97
0.71 0.76 0.80 0.87 0.86 0.84 0.72 0.68 0.74 0.81 0.93 1.06 1.13 1.20 1.23 1.18 1.22 1.30 1.43 1.50 1.50 1.43 1.33 1.29 1.26 1.18 1.14 1.16 1.12 1.03 0.96 0.97
0.68 0.73 0.77 0.82 0.85 0.90 0.78 0.71 0.74 0.82 0.92 1.00 1.03 1.02 1.01 1.11 1.21 1.28 1.40 1.45 1.42 1.43 1.40 1.33 1.29 1.29 1.19 1.18 1.19 1.10 1.05 0.92
0.65 0.69 0.75 0.83 0.89 0.86 0.79 0.71 0.71 0.78 0.87 0.95 1.01 1.02 1.06 1.12 1.16 1.20 1.26 1.37 1.41 1.39 1.40 1.38 1.31 1.30 1.29 1.24 1.22 1.17 1.13 1.00
0.64 0.73 0.82 0.83 0.92 0.90 0.80 0.68 0.68 0.75 0.82 0.90 0.93 0.99 1.01 1.04 1.09 1.12 1.18 1.26 1.35 1.37 1.36 1.36 1.34 1.32 1.31 1.29 1.26 1.20 1.15 1.05
0.63 0.67 0.74 0.81 0.85 0.88 0.77 0.68 0.65 0.71 0.76 0.85 0.89 0.92 0.96 0.97 0.99 1.06 1.14 1.22 1.27 1.27 1.29 1.30 1.31 1.31 1.28 1.26 1.24 1.20 1.12 1.05
0.60 0.65 0.71 0.78 0.83 0.86 0.79 0.67 0.65 0.69 0.71 0.81 0.90 0.92 0.89 0.92 0.96 0.99 1.03 1.11 1.19 1.26 1.26 1.29 1.31 1.29 1.22 1.22 1.20 1.17 1.11 1.06
0.59 0.68 0.73 0.76 0.79 0.84 0.83 0.69 0.67 0.68 0.68 0.78 0.87 0.91 0.91 0.89 0.91 0.96 0.99 1.06 1.14 1.22 1.23 1.21 1.23 1.24 1.19 1.13 1.10 1.06 1.05 1.02
0.63 0.67 0.71 0.73 0.78 0.89 0.90 0.79 0.68 0.71 0.72 0.78 0.85 0.90 0.91 0.93 0.95 0.93 0.96 1.01 1.05 1.13 1.18 1.21 1.20 1.18 1.17 1.16 1.09 1.10 1.06 1.06
0.70 0.74 0.77 0.80 0.86 0.89 0.92 0.86 0.77 0.75 0.77 0.77 0.80 0.86 0.92 0.96 0.94 0.96 0.97 1.01 1.03 1.02 1.08 1.11 1.11 1.09 1.10 1.07 1.07 1.07 1.04 1.03
0.77 0.83 0.86 0.91 0.91 0.95 0.94 0.95 0.87 0.83 0.82 0.83 0.80 0.81 0.87 0.89 0.92 0.96 0.99 0.96 1.00 1.02 1.04 1.02 1.00 0.99 1.02 1.01 0.98 1.00 0.98 0.98
0.83 0.88 0.92 0.97 1.00 1.04 1.05 1.06 1.05 1.01 0.95 0.89 0.84 0.82 0.84 0.86 0.88 0.92 0.95 0.95 0.94 0.94 0.97 0.97 0.98 1.00 1.00 1.00 1.01 1.01 1.02 1.02
0.87 0.91 0.96 1.01 1.03 1.03 1.08 1.10 1.12 1.11 1.10 1.08 1.04 1.00 0.98 0.96 0.92 0.91 0.93 0.95 0.94 0.95 0.96 0.95 0.97 0.99 1.00 1.01 1.02 1.02 1.03 1.03
0.85 0.93 0.96 0.99 1.03 1.07 1.09 1.10 1.13 1.14 1.09 1.09 1.08 1.11 1.13 1.12 1.10 1.08 1.04 0.99 0.96 0.97 0.94 0.96 0.97 0.98 0.98 0.99 1.00 1.00 0.99 0.98
0.76 0.78 0.82 0.85 0.91 0.97 1.04 1.07 1.07 1.09 1.08 1.09 1.10 1.10 1.10 1.11 1.12 1.13 1.12 1.10 1.08 1.05 0.98 0.95 0.94 0.96 0.98 1.01 1.03 1.02 1.04 1.03
0.72 0.77 0.74 0.75 0.80 0.84 0.86 0.91 0.96 0.98 1.00 1.02 1.05 1.06 1.06 1.10 1.14 1.12 1.10 1.11 1.15 1.11 1.08 1.06 1.02 1.01 0.99 1.01 1.02 1.01 1.00 1.00
0.68 0.68 0.66 0.69 0.72 0.72 0.74 0.79 0.82 0.84 0.86 0.88 0.91 0.94 0.97 1.01 1.05 1.08 1.13 1.14 1.12 1.12 1.14 1.16 1.15 1.12 1.14 1.13 1.12 1.09 1.06 1.05

GFSFLT1_prec_pwat_075.txt.gz
Precipitable_Water
0.61 0.73 0.85 0.93 1.00 0.95 0.85 0.73 0.77 0.82 0.88 0.93 0.97 1.02 1.12 1.24 1.53 1.59 1.57 1.58 1.59 1.47 1.29 1.08 0.87 0.80 0.77 0.87 0.92 0.99 0.98 0.98
0.66 0.78 0.87 0.95 0.99 0.93 0.86 0.73 0.71 0.75 0.77 0.80 0.93 0.97 1.10 1.21 1.49 1.58 1.55 1.55 1.52 1.37 1.21 1.01 0.94 0.81 0.79 0.87 0.93 0.93 0.93 1.02
0.65 0.77 0.86 0.89 0.90 0.92 0.87 0.77 0.68 0.72 0.79 0.84 0.99 1.06 1.18 1.26 1.39 1.52 1.51 1.49 1.43 1.33 1.23 0.99 0.96 0.83 0.81 0.85 0.92 0.94 0.95 1.01
0.64 0.73 0.83 0.90 0.86 0.89 0.87 0.80 0.68 0.73 0.80 0.86 0.99 1.11 1.21 1.21 1.23 1.33 1.48 1.48 1.45 1.40 1.29 1.04 1.02 0.92 0.85 0.87 0.96 0.97 0.88 0.96
0.61 0.70 0.81 0.84 0.87 0.94 0.90 0.84 0.72 0.75 0.79 0.82 0.91 0.96 1.00 1.13 1.16 1.26 1.33 1.44 1.50 1.46 1.39 1.23 1.11 1.03 0.99 0.99 1.00 0.99 0.93 0.88
0.59 0.68 0.76 0.85 0.90 0.93 0.91 0.85 0.74 0.73 0.77 0.83 0.91 0.93 1.03 1.09 1.16 1.19 1.25 1.34 1.46 1.47 1.44 1.32 1.24 1.17 1.13 1.17 1.17 1.13 1.10 1.03
0.58 0.69 0.82 0.87 0.96 0.95 0.93 0.84 0.73 0.73 0.76 0.82 0.88 0.91 0.98 1.04 1.08 1.10 1.17 1.27 1.37 1.45 1.46 1.37 1.31 1.27 1.25 1.20 1.26 1.19 1.15 1.09
0.59 0.64 0.73 0.82 0.88 0.92 0.92 0.83 0.69 0.70 0.73 0.78 0.84 0.90 0.94 0.95 1.01 1.03 1.10 1.20 1.24 1.30 1.37 1.36 1.34 1.30 1.31 1.30 1.24 1.22 1.22 1.16
0.56 0.61 0.68 0.77 0.88 0.92 0.90 0.81 0.68 0.69 0.72 0.75 0.85 0.89 0.93 0.94 0.94 0.98 1.05 1.16 1.25 1.31 1.36 1.38 1.38 1.38 1.31 1.32 1.29 1.27 1.27 1.22
0.58 0.63 0.67 0.77 0.87 0.89 0.91 0.84 0.73 0.70 0.71 0.74 0.82 0.86 0.88 0.88 0.93 0.96 0.99 1.07 1.14 1.25 1.32 1.31 1.31 1.33 1.32 1.32 1.28 1.24 1.21 1.23
0.63 0.66 0.71 0.82 0.89 0.94 0.95 0.91 0.77 0.73 0.73 0.75 0.81 0.85 0.89 0.90 0.90 0.91 0.94 1.00 1.04 1.11 1.19 1.22 1.24 1.29 1.31 1.31 1.27 1.23 1.20 1.20
0.68 0.75 0.83 0.92 0.96 0.97 1.00 0.96 0.84 0.79 0.79 0.81 0.83 0.86 0.91 0.91 0.89 0.92 0.95 1.00 1.04 1.05 1.10 1.18 1.20 1.22 1.26 1.24 1.21 1.20 1.18 1.16
0.79 0.84 0.89 0.94 0.99 1.00 1.03 1.04 0.97 0.92 0.93 0.89 0.85 0.87 0.88 0.90 0.93 0.95 0.97 0.96 1.01 1.03 1.07 1.07 1.09 1.11 1.11 1.09 1.10 1.12 1.09 1.06
0.82 0.86 0.91 0.96 1.02 1.06 1.09 1.10 1.08 1.05 1.02 0.98 0.94 0.91 0.89 0.88 0.90 0.93 0.96 0.96 0.97 0.99 0.99 0.99 1.02 1.03 1.04 1.06 1.01 0.98 0.96 0.95
0.84 0.87 0.90 0.96 1.04 1.08 1.09 1.11 1.11 1.11 1.08 1.06 1.04 1.04 1.02 1.01 1.02 1.01 0.99 0.98 0.96 0.96 0.97 0.98 0.99 1.01 1.03 1.04 1.03 1.00 0.99 1.00
0.88 0.88 0.91 0.96 1.01 1.06 1.12 1.12 1.12 1.13 1.13 1.11 1.10 1.12 1.14 1.12 1.09 1.11 1.12 1.10 1.09 1.07 1.02 0.97 0.96 0.97 0.98 0.99 1.02 1.01 1.00 0.99
0.82 0.87 0.91 0.96 1.00 1.05 1.05 1.05 1.04 1.08 1.07 1.05 1.07 1.09 1.12 1.15 1.14 1.14 1.15 1.14 1.14 1.13 1.11 1.11 1.07 1.04 1.00 0.99 1.00 1.00 1.02 1.02
0.74 0.74 0.77 0.82 0.87 0.91 0.92 0.96 0.99 0.99 0.97 0.99 1.01 1.02 1.02 1.06 1.08 1.09 1.11 1.13 1.17 1.15 1.15 1.16 1.14 1.15 1.16 1.15 1.12 1.06 1.01 1.01
0.71 0.73 0.74 0.75 0.75 0.74 0.75 0.77 0.79 0.82 0.83 0.86 0.88 0.90 0.92 0.96 0.97 0.98 1.01 1.05 1.08 1.14 1.16 1.19 1.18 1.21 1.15 1.16 1.17 1.17 1.16 1.15

GFSFLT1_prec_pwat_078.txt.gz
Precipitable_Water
0.52 0.70 0.82 0.85 0.88 1.00 1.03 0.98 0.88 0.87 0.85 0.88 0.93 0.97 1.04 1.14 1.17 1.22 1.44 1.55 1.57 1.59 1.54 1.49 1.41 1.24 1.07 1.05 1.02 1.01 0.95 0.91
0.53 0.64 0.80 0.86 0.91 0.96 1.00 0.95 0.91 0.83 0.78 0.75 0.81 0.85 0.99 1.12 1.23 1.37 1.50 1.54 1.56 1.54 1.51 1.43 1.39 1.12 0.99 1.03 1.02 0.91 0.92 0.98
0.51 0.60 0.76 0.83 0.85 0.94 0.97 0.96 0.89 0.81 0.77 0.81 0.85 0.91 1.04 1.16 1.30 1.32 1.50 1.54 1.53 1.50 1.46 1.36 1.34 1.07 0.99 0.94 0.87 0.88 0.98 1.04
0.51 0.60 0.69 0.81 0.82 0.91 0.92 0.95 0.89 0.81 0.76 0.82 0.85 0.95 1.06 1.15 1.25 1.27 1.46 1.52 1.53 1.51 1.47 1.42 1.27 0.96 0.83 0.84 0.89 0.90 0.91 1.05
0.56 0.65 0.68 0.77 0.82 0.94 0.96 0.96 0.89 0.80 0.77 0.77 0.77 0.85 0.92 1.12 1.22 1.27 1.34 1.43 1.42 1.37 1.35 1.30 1.18 0.94 0.91 0.90 0.99 0.97 0.96 0.95
0.56 0.63 0.64 0.78 0.88 0.91 0.95 0.94 0.90 0.80 0.73 0.76 0.75 0.85 0.98 1.13 1.17 1.21 1.29 1.34 1.37 1.36 1.34 1.27 1.19 0.97 0.93 0.90 0.98 1.00 1.02 1.00
0.62 0.71 0.76 0.79 0.91 0.93 0.94 0.94 0.89 0.80 0.72 0.76 0.79 0.86 0.92 1.00 1.09 1.12 1.19 1.25 1.32 1.33 1.40 1.36 1.26 1.05 1.02 0.97 0.95 0.94 1.02 1.04
0.59 0.64 0.68 0.74 0.85 0.91 0.92 0.93 0.86 0.78 0.70 0.74 0.81 0.88 0.92 0.96 1.02 1.06 1.09 1.12 1.20 1.27 1.39 1.39 1.29 1.22 1.17 1.09 1.06 1.07 1.08 1.07
0.57 0.62 0.65 0.70 0.81 0.90 0.92 0.93 0.87 0.76 0.71 0.74 0.82 0.88 0.93 0.96 0.99 0.99 1.01 1.08 1.22 1.32 1.36 1.40 1.37 1.31 1.25 1.22 1.18 1.22 1.24 1.21
0.58 0.65 0.68 0.70 0.78 0.89 0.94 0.96 0.93 0.76 0.72 0.75 0.80 0.88 0.91 0.93 0.97 0.98 0.97 1.02 1.12 1.28 1.34 1.35 1.38 1.34 1.32 1.30 1.23 1.21 1.25 1.24
0.64 0.69 0.75 0.79 0.87 0.96 1.04 1.03 0.95 0.82 0.77 0.78 0.80 0.88 0.92 0.93 0.95 0.94 0.95 0.99 1.04 1.10 1.16 1.24 1.29 1.33 1.33 1.32 1.26 1.26 1.26 1.25
0.72 0.77 0.82 0.84 0.92 0.98 1.06 1.05 0.95 0.82 0.80 0.79 0.81 0.83 0.90 0.92 0.93 0.95 0.98 1.00 1.03 1.04 1.08 1.13 1.19 1.22 1.27 1.28 1.29 1.28 1.25 1.24
0.83 0.84 0.86 0.86 0.92 1.00 1.07 1.06 0.99 0.87 0.87 0.86 0.85 0.87 0.88 0.90 0.92 0.94 0.97 0.98 1.01 1.01 1.04 1.05 1.12 1.20 1.20 1.21 1.22 1.24 1.22 1.21
0.80 0.85 0.87 0.92 0.97 1.05 1.07 1.09 1.06 1.00 0.97 0.94 0.89 0.89 0.88 0.86 0.88 0.91 0.94 0.96 0.97 0.99 0.98 0.98 1.02 1.05 1.08 1.06 1.06 1.06 1.04 1.07
0.82 0.84 0.87 0.91 0.98 1.04 1.05 1.07 1.12 1.11 1.05 1.01 0.96 0.97 0.97 0.98 0.99 0.99 0.98 0.97 0.93 0.94 0.97 0.99 0.99 1.00 1.01 1.04 1.04 1.04 1.06 1.06
0.83 0.86 0.88 0.93 0.97 1.02 1.05 1.09 1.11 1.15 1.15 1.07 1.03 1.08 1.10 1.10 1.09 1.09 1.10 1.09 1.07 1.06 1.03 1.00 0.98 0.97 0.98 1.00 1.01 1.01 1.01 1.02
0.84 0.87 0.89 0.92 0.97 1.00 1.04 1.07 1.10 1.11 1.11 1.07 1.06 1.08 1.10 1.09 1.11 1.13 1.14 1.13 1.14 1.14 1.13 1.13 1.11 1.11 1.13 1.11 1.07 1.01 0.99 0.98
0.82 0.84 0.90 0.93 0.96 1.00 1.02 1.04 1.06 1.04 1.04 1.01 1.00 0.99 1.00 1.02 1.04 1.06 1.07 1.07 1.10 1.11 1.12 1.15 1.14 1.18 1.11 1.13 1.16 1.15 1.13 1.11
0.76 0.78 0.79 0.80 0.82 0.85 0.90 0.96 0.95 0.92 0.91 0.91 0.92 0.93 0.94 0.96 0.98 0.97 0.98 0.98 0.97 0.97 0.99 1.04 1.08 1.03 1.03 1.04 1.08 1.14 1.18 1.20

GFSFLT1_prec_pwat_081.txt.gz
Precipitable_Water
0.41 0.49 0.60 0.75 0.94 1.00 1.07 1.09 1.15 1.03 0.96 0.89 0.91 0.96 0.99 1.06 1.11 1.17 1.26 1.29 1.35 1.50 1.56 1.51 1.51 1.48 1.44 1.31 1.10 1.07 1.01 0.98
0.42 0.48 0.59 0.73 0.90 0.97 0.99 1.04 1.11 1.02 0.90 0.78 0.79 0.80 0.89 0.98 1.09 1.19 1.23 1.29 1.43 1.54 1.55 1.51 1.51 1.45 1.43 1.30 1.09 0.99 0.97 1.07
0.41 0.47 0.57 0.67 0.77 0.94 0.96 1.02 1.06 1.02 0.93 0.80 0.81 0.86 0.91 1.01 1.14 1.20 1.31 1.36 1.46 1.54 1.50 1.50 1.46 1.43 1.41 1.28 1.06 0.99 0.98 1.01
0.35 0.44 0.54 0.66 0.73 0.85 0.93 0.99 1.02 1.03 0.95 0.84 0.82 0.90 0.93 1.01 1.12 1.22 1.26 1.43 1.54 1.52 1.51 1.49 1.46 1.43 1.35 1.23 1.01 0.98 1.02 1.03
0.36 0.42 0.52 0.61 0.75 0.89 0.94 0.99 1.00 1.03 0.99 0.78 0.75 0.76 0.82 1.01 1.16 1.24 1.24 1.40 1.47 1.50 1.50 1.49 1.46 1.42 1.34 1.17 1.05 1.01 0.99 0.86
0.38 0.45 0.58 0.73 0.84 0.89 0.95 0.96 1.01 1.01 0.94 0.77 0.77 0.79 0.92 1.06 1.18 1.20 1.25 1.33 1.40 1.44 1.47 1.44 1.39 1.39 1.34 1.15 1.05 1.01 0.97 0.93
0.46 0.59 0.69 0.76 0.85 0.89 0.96 0.93 0.97 0.99 0.91 0.77 0.77 0.80 0.90 0.98 1.11 1.17 1.25 1.29 1.28 1.33 1.37 1.39 1.37 1.34 1.27 1.04 1.00 0.99 0.96 0.99
0.54 0.62 0.65 0.72 0.76 0.86 0.93 0.93 0.95 0.99 0.89 0.74 0.79 0.86 0.91 0.96 1.04 1.10 1.15 1.20 1.24 1.27 1.29 1.29 1.30 1.26 1.14 1.09 1.02 0.99 1.00 1.02
0.56 0.63 0.72 0.74 0.76 0.85 0.93 0.96 0.97 0.99 0.84 0.74 0.81 0.89 0.92 0.96 1.01 1.03 1.05 1.09 1.20 1.27 1.28 1.28 1.25 1.29 1.23 1.16 1.08 1.03 1.06 1.07
0.62 0.64 0.74 0.79 0.81 0.87 0.95 0.97 1.02 1.01 0.81 0.75 0.80 0.88 0.92 0.94 0.97 1.02 0.99 1.03 1.08 1.23 1.31 1.34 1.33 1.29 1.20 1.17 1.13 1.09 1.09 1.10
0.66 0.67 0.77 0.84 0.86 0.88 0.97 1.02 1.05 1.04 0.82 0.77 0.79 0.87 0.91 0.95 0.96 0.95 0.95 0.99 1.03 1.08 1.17 1.25 1.32 1.33 1.25 1.18 1.13 1.18 1.12 1.13
0.78 0.80 0.85 0.88 0.91 0.90 0.96 1.03 1.08 1.05 0.83 0.80 0.80 0.83 0.90 0.92 0.92 0.95 0.97 0.99 1.02 1.05 1.11 1.15 1.18 1.21 1.25 1.23 1.20 1.19 1.15 1.13
0.83 0.89 0.91 0.92 0.92 0.92 0.98 1.06 1.10 1.11 0.87 0.81 0.82 0.82 0.86 0.87 0.89 0.94 0.98 0.98 1.01 1.03 1.05 1.07 1.12 1.16 1.20 1.17 1.16 1.21 1.20 1.16
0.83 0.86 0.91 0.94 0.95 0.96 1.04 1.09 1.11 1.10 0.92 0.84 0.84 0.86 0.86 0.87 0.90 0.93 0.95 0.97 0.99 1.01 1.01 1.01 1.02 1.06 1.11 1.17 1.19 1.16 1.16 1.14
0.82 0.87 0.89 0.90 0.91 0.96 1.01 1.08 1.14 1.14 1.04 0.92 0.89 0.92 0.92 0.91 0.93 0.94 0.94 0.96 0.96 0.98 1.00 1.01 1.02 1.04 1.06 1.07 1.07 1.08 1.05 1.05
0.81 0.82 0.85 0.86 0.92 0.97 1.02 1.09 1.13 1.15 1.09 0.99 0.95 1.00 1.03 1.03 1.03 1.05 1.07 1.06 1.04 1.03 1.01 1.02 1.04 1.06 1.05 1.04 1.04 1.02 1.02 1.01
0.79 0.82 0.82 0.86 0.90 0.94 1.01 1.05 1.08 1.12 1.09 1.08 1.06 1.04 1.05 1.06 1.10 1.12 1.12 1.11 1.10 1.13 1.11 1.11 1.12 1.10 1.05 1.06 1.06 1.06 1.07 1.05
0.79 0.82 0.82 0.87 0.91 0.95 0.98 1.03 1.06 1.05 1.04 1.03 1.04 1.04 1.02 1.01 1.02 1.04 1.05 1.06 1.08 1.07 1.07 1.09 1.06 1.05 1.05 1.08 1.12 1.15 1.15 1.15
0.79 0.82 0.84 0.87 0.93 0.94 0.98 1.02 1.03 1.04 1.02 1.02 1.01 0.99 0.98 0.97 0.96 0.97 0.98 0.98 0.97 0.97 0.97 0.96 0.96 0.97 1.02 1.06 1.11 1.15 1.15 1.07

GFSFLT1_prec_pwat_084.txt.gz
Precipitable_Water
0.33 0.43 0.53 0.66 0.78 0.89 0.97 1.05 1.13 1.18 1.22 1.09 0.99 0.87 0.95 1.00 1.04 1.11 1.22 1.28 1.32 1.35 1.37 1.47 1.53 1.49 1.48 1.46 1.38 1.28 1.13 1.08
0.34 0.44 0.52 0.66 0.75 0.83 0.96 1.02 1.10 1.13 1.15 1.02 0.87 0.76 0.85 0.95 1.04 1.11 1.19 1.24 1.30 1.33 1.37 1.43 1.51 1.46 1.44 1.44 1.33 1.22 1.10 1.10
0.35 0.41 0.52 0.63 0.71 0.78 0.90 0.99 1.06 1.12 1.15 1.05 0.90 0.80 0.86 0.95 1.03 1.12 1.20 1.22 1.27 1.29 1.33 1.46 1.48 1.47 1.44 1.41 1.27 1.22 1.12 1.15
0.38 0.37 0.47 0.62 0.67 0.75 0.86 0.93 1.06 1.09 1.12 1.05 0.94 0.82 0.83 0.87 0.97 1.10 1.22 1.28 1.33 1.36 1.42 1.51 1.50 1.48 1.41 1.42 1.40 1.25 1.05 1.07
0.39 0.35 0.42 0.56 0.65 0.82 0.87 0.96 1.03 1.10 1.09 1.01 0.87 0.65 0.68 0.81 1.00 1.15 1.28 1.31 1.38 1.45 1.52 1.49 1.49 1.49 1.43 1.43 1.45 1.29 1.10 0.93
0.43 0.40 0.37 0.57 0.70 0.80 0.87 0.96 1.04 1.07 1.06 1.02 0.84 0.69 0.76 0.91 1.04 1.14 1.19 1.25 1.38 1.44 1.51 1.50 1.46 1.48 1.46 1.43 1.41 1.31 1.13 1.01
0.53 0.49 0.46 0.54 0.69 0.82 0.88 0.93 1.02 1.04 1.07 1.01 0.80 0.72 0.75 0.85 0.97 1.10 1.16 1.23 1.27 1.35 1.42 1.45 1.47 1.44 1.44 1.44 1.40 1.32 1.11 1.08
0.62 0.57 0.56 0.61 0.72 0.85 0.88 0.94 0.97 1.01 1.06 1.00 0.78 0.77 0.80 0.87 0.97 1.07 1.14 1.16 1.22 1.24 1.31 1.36 1.42 1.44 1.44 1.42 1.37 1.20 1.10 1.07
0.70 0.63 0.68 0.75 0.87 0.88 0.91 0.95 0.96 0.99 1.06 0.99 0.76 0.82 0.85 0.90 0.99 1.05 1.08 1.11 1.18 1.24 1.28 1.36 1.40 1.42 1.42 1.42 1.30 1.22 1.18 1.13
0.75 0.69 0.80 0.84 0.89 0.88 0.93 0.97 0.99 1.04 1.06 0.94 0.75 0.85 0.86 0.90 0.98 1.04 1.05 1.08 1.12 1.26 1.27 1.28 1.30 1.35 1.33 1.29 1.21 1.14 1.15 1.14
0.76 0.78 0.84 0.90 0.96 0.93 0.99 1.06 1.02 1.08 1.09 0.91 0.76 0.85 0.90 0.94 0.99 0.99 1.00 1.01 1.04 1.08 1.18 1.23 1.29 1.29 1.29 1.27 1.21 1.23 1.21 1.16
0.77 0.86 0.88 0.92 0.96 0.99 1.00 1.02 1.04 1.09 1.09 0.91 0.78 0.85 0.90 0.94 0.94 0.97 0.96 0.98 1.02 1.05 1.10 1.18 1.19 1.24 1.26 1.20 1.15 1.18 1.17 1.16
0.79 0.87 0.93 0.93 0.96 0.97 1.00 1.02 1.07 1.13 1.11 0.93 0.81 0.86 0.90 0.90 0.92 0.98 1.01 0.98 1.01 1.03 1.06 1.11 1.14 1.17 1.20 1.16 1.11 1.10 1.07 1.05
0.79 0.85 0.87 0.92 0.97 0.99 1.01 1.03 1.10 1.16 1.10 0.98 0.85 0.80 0.87 0.88 0.91 0.97 0.98 0.98 0.99 1.00 1.01 1.02 1.04 1.08 1.11 1.15 1.15 1.11 1.10 1.06
0.76 0.79 0.84 0.90 0.94 0.96 1.01 1.05 1.14 1.15 1.10 1.03 0.91 0.84 0.87 0.92 0.95 0.98 0.98 0.98 0.98 1.01 1.02 1.02 1.04 1.05 1.07 1.07 1.06 1.05 1.04 1.03
0.73 0.76 0.82 0.87 0.91 0.96 1.00 1.04 1.09 1.09 1.05 1.02 0.94 0.87 0.92 0.96 0.97 0.98 1.01 1.01 1.01 1.02 1.03 1.04 1.06 1.07 1.02 1.03 1.08 1.08 1.08 1.08
0.73 0.75 0.81 0.86 0.89 0.93 0.97 1.00 1.05 1.07 1.05 1.03 0.99 0.92 0.93 0.95 0.98 0.99 1.02 1.04 1.04 1.04 1.03 1.04 0.99 0.99 1.01 1.04 1.08 1.11 1.12 1.09
0.74 0.75 0.80 0.87 0.89 0.93 0.94 0.98 1.02 1.05 1.07 1.05 1.05 1.01 0.97 1.01 1.05 1.07 1.06 1.06 1.06 1.05 1.05 1.06 1.03 1.01 1.05 1.09 1.12 1.13 1.11 1.08
0.76 0.78 0.81 0.85 0.90 0.91 0.96 0.98 1.00 1.01 1.02 1.06 1.06 1.05 1.03 1.01 1.03 1.01 1.00 1.00 0.99 0.99 0.99 1.00 1.00 1.01 1.04 1.08 1.09 1.08 1.05 1.03

GFSFLT1_prec_pwat_090.txt.gz
Precipitable_Water
0.41 0.45 0.45 0.44 0.41 0.51 0.96 1.07 1.04 1.15 1.23 1.23 1.18 1.15 1.14 1.19 1.11 0.98 0.96 1.07 1.15 1.16 1.19 1.25 1.36 1.35 1.36 1.46 1.43 1.48 1.47 1.43
0.43 0.45 0.49 0.47 0.40 0.47 0.90 1.01 1.01 1.11 1.12 1.08 1.04 0.98 1.06 1.16 1.07 0.96 0.90 1.03 1.08 1.08 1.12 1.18 1.22 1.21 1.25 1.38 1.41 1.39 1.41 1.45
0.41 0.44 0.47 0.45 0.40 0.51 0.92 0.99 1.01 1.11 1.11 1.10 1.06 1.04 1.08 1.16 1.06 0.93 0.95 1.02 1.06 1.05 1.09 1.16 1.21 1.23 1.28 1.31 1.37 1.31 1.34 1.42
0.38 0.42 0.44 0.47 0.44 0.65 0.99 1.05 1.06 1.15 1.14 1.11 1.08 1.09 1.10 1.13 1.03 0.89 0.91 1.00 1.05 1.06 1.15 1.21 1.22 1.26 1.25 1.31 1.36 1.31 1.22 1.32
0.39 0.45 0.48 0.48 0.56 0.71 0.93 1.09 1.11 1.17 1.10 1.05 0.98 0.93 0.93 1.04 0.97 0.89 0.88 1.00 1.07 1.19 1.27 1.32 1.31 1.24 1.26 1.37 1.36 1.40 1.32 1.24
0.42 0.43 0.50 0.51 0.62 0.72 0.82 1.09 1.12 1.15 1.05 1.05 1.00 0.97 1.03 1.04 0.97 0.85 0.87 1.01 1.14 1.20 1.27 1.32 1.33 1.31 1.29 1.31 1.35 1.42 1.39 1.28
0.68 0.66 0.56 0.52 0.64 0.77 0.85 1.02 1.05 1.13 1.05 1.06 1.01 1.01 1.02 0.96 0.89 0.74 0.84 0.96 1.07 1.16 1.28 1.33 1.43 1.42 1.38 1.31 1.39 1.41 1.43 1.34
0.73 0.74 0.78 0.73 0.62 0.84 0.89 0.96 0.97 1.04 1.05 1.05 1.03 1.06 1.05 0.96 0.84 0.75 0.81 0.93 1.01 1.14 1.20 1.23 1.30 1.38 1.47 1.42 1.39 1.45 1.39 1.36
0.73 0.81 0.84 0.81 0.80 0.93 1.03 0.96 0.96 0.98 1.03 1.04 1.08 1.11 1.08 0.96 0.84 0.80 0.90 0.95 1.01 1.08 1.13 1.21 1.29 1.39 1.43 1.47 1.44 1.45 1.43 1.37
0.69 0.74 0.80 0.85 0.93 1.04 1.09 1.08 1.05 0.99 1.01 1.06 1.10 1.13 1.07 0.92 0.84 0.89 0.94 1.03 1.04 1.06 1.09 1.17 1.25 1.36 1.42 1.43 1.41 1.39 1.43 1.37
0.74 0.79 0.84 1.01 1.07 1.12 1.17 1.09 1.01 1.01 1.05 1.13 1.13 1.15 1.05 0.95 0.85 0.88 0.96 1.04 1.04 1.02 1.04 1.10 1.21 1.30 1.39 1.40 1.39 1.40 1.39 1.35
0.74 0.79 0.87 0.95 1.03 1.07 1.10 1.10 1.04 1.00 1.07 1.18 1.14 1.12 1.06 0.92 0.87 0.93 0.98 1.02 1.01 1.00 1.02 1.06 1.13 1.25 1.32 1.36 1.35 1.36 1.36 1.36
0.74 0.79 0.84 0.90 0.94 0.98 1.06 1.05 1.05 1.08 1.19 1.17 1.16 1.14 1.05 0.95 0.91 0.95 0.99 1.00 1.02 1.02 1.02 1.04 1.09 1.16 1.28 1.30 1.30 1.32 1.30 1.29
0.70 0.78 0.81 0.86 0.92 0.95 0.91 1.06 1.11 1.20 1.21 1.19 1.15 1.14 1.07 0.99 0.94 0.97 0.98 0.98 0.97 0.98 1.04 1.01 1.04 1.11 1.15 1.23 1.26 1.25 1.24 1.24
0.68 0.74 0.78 0.84 0.88 0.92 0.97 1.06 1.21 1.22 1.21 1.19 1.15 1.15 1.09 1.04 1.03 1.03 1.01 0.99 0.97 1.01 1.01 1.03 1.05 1.06 1.09 1.13 1.16 1.17 1.16 1.20
0.67 0.71 0.75 0.81 0.87 0.88 0.98 1.04 1.11 1.15 1.14 1.13 1.13 1.13 1.11 1.07 1.04 1.04 1.01 0.98 0.97 0.97 0.96 0.96 0.96 0.97 0.99 1.02 1.06 1.07 1.10 1.13
0.65 0.70 0.73 0.77 0.84 0.87 0.92 0.97 1.02 1.08 1.09 1.08 1.11 1.09 1.06 1.02 1.01 0.98 0.97 0.94 0.94 0.94 0.91 0.91 0.92 0.94 0.98 1.03 1.05 1.04 1.03 1.00
0.64 0.69 0.72 0.75 0.81 0.89 0.91 0.93 0.98 1.02 1.05 1.05 1.08 1.05 1.00 0.99 0.99 0.98 0.94 0.91 0.90 0.88 0.89 0.91 0.91 0.93 0.97 1.01 1.01 1.00 1.00 1.00
0.64 0.69 0.72 0.75 0.81 0.85 0.88 0.90 0.92 0.93 0.96 0.97 1.02 1.02 0.96 0.94 0.93 0.93 0.93 0.93 0.90 0.86 0.87 0.92 0.94 0.95 0.98 1.00 1.01 1.00 0.99 0.99